Ireland West Airport Knock, Ireland

10:32 PM IST on August 24, 2016 (GMT +0100)
Connaught

Weather History for EIKN - June, 2013

Change the Weather History Date:

Thursday, June 27, 2013

  Actual Average Record
Temperature  
Mean Temperature 56 °F -  
Max Temperature 66 °F - - ()
Min Temperature 47 °F - - ()
Degree Days  
Heating Degree Days 8    
Growing Degree Days 6 (Base 50)    
Moisture  
Dew Point 55 °F    
Average Humidity 94    
Maximum Humidity 100    
Minimum Humidity 77    
Precipitation  
Precipitation 0.02 in - - ()
Sea Level Pressure  
Sea Level Pressure 30.39 in    
Wind  
Wind Speed 10 mph ()    
Max Wind Speed 18 mph    
Max Gust Speed -    
Visibility 4.8 miles    
Events Fog , Rain    
T = Trace of Precipitation, MM = Missing Value Source: Averaged Metar Reports

Daily Weather History Graph

Daily Weather History Graph

Search for Another Location

Airport or City:

Trip Planner

Search our weather history database for the weather conditions in past years. The results will help you decide how hot, cold, wet, or windy it might be!

Date:

Astronomy

Jun. 27, 2013 Rise Set
Actual Time 5:05 AM IST 10:10 PM IST
Civil Twilight 4:11 AM IST 11:04 PM IST
Nautical Twilight 2:28 AM IST 12:46 AM IST
Astronomical Twilight Sun does not set Sun does not set
Moon No Moon Rise 10:38 AM IST (6/27)
Length of Visible Light 18h 53m
Length of Day
17h 05m
Waning Gibbous, 78% of the Moon is Illuminated
Jun 27
Waning Gibbous
Jun 30
Last Quarter
Jul 8
New
Jul 16
First Quarter
Jul 22
Full

Hourly Weather History & Observations

Time (IST) Temp. Dew Point Humidity Pressure Visibility Wind Dir Wind Speed Gust Speed Precip Events Conditions
1:00 AM 48 °F 47 °F 96% 30.53 in - West 6.7 mph - -  
6:00 AM 50.0 °F 48.2 °F 94% 30.42 in 6.2 mi SW 5.8 mph - N/A   Overcast
6:30 AM 50.0 °F 50.0 °F 100% 30.42 in 6.2 mi SW 6.9 mph - N/A   Overcast
7:00 AM 51 °F 50 °F 94% 30.44 in 6 mi SW 6.7 mph - -   Mist
7:00 AM 51.8 °F 50.0 °F 94% 30.42 in 5.6 mi SW 6.9 mph - N/A   Mostly Cloudy
7:30 AM 51.8 °F 51.8 °F 100% 30.42 in 5.6 mi SW 8.1 mph - N/A Rain Light Rain
8:00 AM 51.8 °F 51.8 °F 100% 30.42 in 6.2 mi SW 8.1 mph - N/A Rain Light Rain
8:30 AM 53.6 °F 53.6 °F 100% 30.39 in 5.6 mi SSW 8.1 mph - N/A Rain Light Rain
9:00 AM 53.6 °F 53.6 °F 100% 30.39 in 0.4 mi WSW 10.4 mph - N/A Fog Fog
9:30 AM 55.4 °F 55.4 °F 100% 30.39 in 0.2 mi WSW 13.8 mph - N/A Fog Fog
10:00 AM 55.4 °F 55.4 °F 100% 30.39 in 0.2 mi WSW 15.0 mph - N/A Fog Fog
10:30 AM 55.4 °F 55.4 °F 100% 30.39 in 0.2 mi West 16.1 mph - N/A Fog Fog
11:00 AM 55.4 °F 55.4 °F 100% 30.39 in 0.2 mi West 15.0 mph - N/A Fog Fog
11:30 AM 55.4 °F 55.4 °F 100% 30.39 in 0.2 mi West 13.8 mph - N/A Fog Fog
12:00 PM 55.4 °F 55.4 °F 100% 30.39 in 0.2 mi West 13.8 mph - N/A Fog Fog
12:30 PM 57.2 °F 55.4 °F 94% 30.39 in 0.7 mi West 15.0 mph - N/A   Mostly Cloudy
1:00 PM 58 °F 57 °F 94% 30.40 in 15 mi West 13.4 mph - - Fog Light Fog
1:00 PM 57.2 °F 57.2 °F 100% 30.39 in 6.2 mi West 13.8 mph - N/A   Mostly Cloudy
1:30 PM 59.0 °F 57.2 °F 94% 30.36 in 6.2 mi West 16.1 mph - N/A   Overcast
2:00 PM 62.6 °F 57.2 °F 82% 30.36 in 6.2 mi West 16.1 mph - N/A   Mostly Cloudy
2:30 PM 62.6 °F 57.2 °F 82% 30.36 in 6.2 mi West 17.3 mph - N/A   Scattered Clouds
3:00 PM 64.4 °F 59.0 °F 83% 30.36 in 6.2 mi West 18.4 mph - N/A   Scattered Clouds
3:30 PM 66.2 °F 59.0 °F 78% 30.36 in 6.2 mi West 16.1 mph - N/A   Mostly Cloudy
4:00 PM 64.4 °F 57.2 °F 77% 30.36 in 6.2 mi West 16.1 mph - N/A   Mostly Cloudy
4:30 PM 62.6 °F 57.2 °F 82% 30.33 in 6.2 mi West 16.1 mph - N/A   Mostly Cloudy
5:00 PM 60.8 °F 59.0 °F 94% 30.33 in 6.2 mi West 15.0 mph - N/A   Mostly Cloudy
5:30 PM 60.8 °F 57.2 °F 88% 30.33 in 6.2 mi West 15.0 mph - N/A   Mostly Cloudy
6:00 PM 59.0 °F 57.2 °F 94% 30.33 in 6.2 mi West 15.0 mph - N/A   Overcast
7:00 PM 57 °F 56 °F 95% 30.33 in 7 mi West 13.4 mph - - Rain Light Drizzle